map of BIQ home
BIQ - Airport
Location
City:  Biarritz, Aquitaine, France
Name:Bayonne-Anglet
ICAO:LFBZ
IATA:BIQ

Details
Type:Airport (Aerodrome, Airfield)
Use:Public/Civil
Latitude:4328'06"N (43.468333)
Longitude:131'52"W (-1.531110)
Elevation:245 ft (75 m)
Variation:0.11E (WMM2015v2 magnetic declination)
0.16 annual change
Runways:1
Longest:7382 × 148 ft (2250 × 45 m), paved

Time
Time Zone:UTC+1 (DST+2)
Local Time:

Weather
METAR:LFBZ 041400Z AUTO VRB02KT 9999 BKN054 OVC064 11/02 Q1027 NOSIG
TAF:LFBZ 041100Z 0412/0512 12008KT CAVOK
TEMPO 0414/0419 -RA OVC040
BECMG 0419/0420 27012KT 4000 -RA OVC020
TEMPO 0420/0512 27015G25KT 2000 RA OVC010

Related Locations
Nearby:
Farthest:NZFT: 12234 mi / 19689 km
Flat Point, WGN, NZ

Find:

   beyond  
but within

Other Information
Maps:
NOTAMs:
Links:
Sources:

  
  • flag of France
  • flag of Aquitaine
  

Sectional Chart

Flight Planning
at skyvector.com

Satellite Image

Google Maps Satellite view

 

Copyright © 2004-2019 Karl L. Swartz. All rights reserved.
The Great Circle Mapper name and logo are trademarks of the Great Circle Mapper.
All other trademarks mentioned herein belong to their respective owners.
Please see credits for attibutions and further copyright information.

  Follow gcmap on Facebook Follow gcmap on Twitter GCmap on LinkedIn

hCard Microformat

Geo Microformat